GFSNE_sfc_temp_021.txt.gz
Temp
34 34 33 34 33 35 35 36 33 28 29 33 32 39 39 40 42 40 41 45 45 44 44 44 46 47 49 51 52 54 56 59 59 59 59 58 58 59
34 32 32 32 32 32 31 32 33 32 29 32 36 36 38 42 43 38 39 46 44 43 43 43 43 45 46 48 48 50 53 54 55 56 56 57 57 57
32 32 31 32 30 30 30 31 31 30 28 32 34 35 35 36 37 38 39 38 39 44 43 43 42 43 43 45 46 46 48 51 52 53 54 55 55 56
31 30 30 35 29 29 29 29 29 30 29 27 30 30 32 35 35 34 40 43 37 44 43 43 43 42 42 43 44 45 45 47 49 50 51 52 53 53
30 30 30 29 27 27 28 28 28 32 30 28 29 29 29 30 31 32 33 33 39 42 42 43 43 44 44 43 44 44 46 45 45 46 46 47 49 50
31 30 29 29 27 27 28 28 30 29 29 28 28 28 29 30 29 29 28 29 30 38 39 41 41 43 44 44 44 44 45 45 45 44 43 42 43 45
30 30 30 31 34 33 31 28 26 26 29 28 28 28 28 27 26 28 26 26 27 29 30 33 35 37 38 41 43 44 44 44 45 44 43 42 42 42
27 29 29 31 31 32 32 32 31 27 26 26 26 26 27 25 25 25 25 23 22 28 27 27 32 33 35 37 41 41 43 43 43 44 43 42 41 40
26 26 27 30 29 28 30 31 30 32 30 27 25 26 27 28 27 25 23 23 23 27 26 23 23 28 33 37 39 40 42 42 42 42 41 41 40 39
26 26 26 26 27 29 27 28 28 30 30 30 29 27 28 29 28 29 27 27 26 27 27 26 21 23 26 29 37 39 41 41 41 41 41 40 40 39
26 26 27 27 28 30 28 26 26 29 32 33 33 33 33 31 32 29 28 26 24 26 26 24 22 21 23 24 29 38 39 40 40 41 41 40 40 39
24 26 27 28 30 30 26 25 23 26 28 27 26 28 29 29 31 29 26 24 23 19 26 24 27 23 18 21 22 25 25 37 38 39 40 41 40 34
23 24 25 28 29 29 29 26 26 27 27 27 27 26 26 27 27 28 27 25 23 23 27 26 22 21 21 21 21 23 24 23 24 28 38 39 40 37
22 23 24 28 28 27 27 27 27 25 25 24 25 25 25 25 28 29 29 28 29 29 31 30 23 24 22 20 20 23 21 21 21 22 23 31 37 38
22 25 27 27 26 25 26 26 24 23 23 22 22 24 26 28 30 30 30 31 31 31 31 30 29 27 25 22 22 20 22 22 18 20 26 24 24 26
19 18 20 23 21 21 22 23 22 23 22 22 22 25 27 27 27 29 28 29 29 29 31 31 31 30 28 29 29 25 26 25 24 24 28 21 24 28
11 11 14 16 16 18 19 19 20 21 20 20 21 21 23 25 27 27 27 27 23 26 27 29 31 32 32 31 28 29 28 28 27 24 27 23 22 25
12 5 3 7 13 16 15 16 17 16 18 18 19 20 20 22 24 25 25 24 23 25 25 26 29 29 29 30 32 30 29 29 29 29 27 28 27 25
6 4 -0 5 8 15 15 15 14 14 15 16 16 16 18 20 22 22 22 23 23 24 23 20 25 27 26 24 25 30 24 29 25 28 27 28 25 23
8 5 3 4 7 12 14 13 12 11 10 11 13 13 14 16 18 20 20 16 18 20 21 21 20 19 18 18 18 18 30 24 26 23 21 19 21 29
8 9 3 6 6 7 3 8 8 7 7 6 8 10 11 14 16 18 17 15 14 19 17 17 18 21 20 16 14 11 13 27 23 19 17 20 21 24
4 8 8 7 2 2 -2 -2 5 7 7 7 6 6 7 10 14 15 16 12 12 11 16 19 22 24 18 19 14 14 18 21 22 27 28 25 16 17
4 6 3 -0 0 -0 4 -1 -0 -1 6 7 7 7 5 6 11 11 12 12 14 14 14 16 19 19 20 20 15 17 14 12 22 17 15 27 29 29

GFSNE_sfc_temp_024.txt.gz
Temp
34 34 32 33 32 32 32 32 29 24 28 34 33 39 40 41 42 41 40 44 45 44 44 45 46 46 47 48 50 50 51 56 59 59 59 60 60 60
34 32 32 32 31 31 30 30 30 28 24 33 35 36 39 43 43 42 39 44 43 44 43 44 44 44 45 45 46 48 49 48 56 58 57 58 59 59
32 32 31 31 30 30 30 29 29 29 25 29 34 36 35 36 39 39 40 39 39 42 43 43 43 43 43 43 43 45 46 48 49 54 55 56 58 58
31 31 31 34 30 29 29 28 28 29 27 25 30 31 32 36 36 35 39 43 39 43 42 42 43 43 42 42 42 43 44 44 45 47 51 54 55 56
30 30 30 30 28 28 28 27 28 30 29 28 28 32 32 33 34 34 34 35 39 41 41 41 41 42 43 43 43 43 43 43 43 44 43 45 49 51
31 30 30 29 28 28 28 28 29 28 28 27 27 30 30 32 32 32 31 33 34 38 39 38 40 41 42 43 43 44 44 43 43 43 42 43 43 45
30 30 30 31 34 33 31 29 28 26 26 26 26 28 29 29 29 32 30 30 31 32 33 34 36 37 39 40 43 44 44 44 43 43 42 41 42 43
26 28 28 30 30 31 31 31 31 26 25 25 26 25 26 29 29 28 27 26 26 32 31 30 34 35 36 38 39 41 42 43 44 43 43 42 42 41
26 26 26 30 28 28 28 30 30 31 29 28 26 26 27 29 30 29 28 26 26 30 30 28 29 31 35 38 38 40 41 42 43 43 42 41 41 40
26 26 26 26 27 29 28 28 29 30 30 31 29 29 30 31 29 30 29 29 29 30 30 26 29 29 32 33 36 39 40 41 41 41 41 41 40 39
26 27 27 27 28 31 27 26 27 29 32 33 33 33 33 33 33 30 27 27 25 28 29 28 27 28 29 31 33 37 39 40 40 41 41 41 40 39
25 26 27 28 29 29 26 24 23 26 27 28 30 30 30 30 30 29 28 25 26 23 29 27 28 28 26 28 29 31 33 37 39 40 40 41 41 39
23 23 25 27 29 29 28 25 25 26 26 26 27 28 29 28 29 29 29 26 25 25 29 29 27 26 27 27 29 30 30 32 34 35 38 39 40 39
21 22 22 28 27 27 26 27 26 24 23 23 24 25 26 27 29 30 29 29 29 29 32 32 27 28 27 25 27 30 30 30 31 32 32 34 37 39
21 23 25 25 24 23 25 25 23 22 21 21 21 23 25 27 29 30 31 30 30 30 31 31 29 29 29 27 27 27 30 30 27 30 30 30 34 31
18 16 17 21 16 18 20 21 20 20 19 19 20 22 25 26 27 29 28 30 29 30 32 31 30 30 28 29 30 29 29 30 29 29 30 30 32 34
10 9 11 12 15 17 17 18 18 17 17 18 18 19 21 23 25 27 27 27 26 27 28 30 31 31 32 31 29 30 29 30 31 30 29 30 31 33
12 5 -0 -1 5 13 14 15 15 14 14 16 17 18 18 19 22 25 25 25 25 25 26 27 30 30 30 31 33 31 31 31 33 31 30 30 30 32
7 5 -3 -3 1 11 13 14 13 13 14 13 14 15 16 18 20 21 22 22 23 24 25 26 27 28 27 25 26 30 28 30 30 29 30 30 30 32
9 6 3 3 7 10 11 10 12 11 10 10 10 11 12 15 17 18 19 16 19 22 23 25 24 24 25 24 25 26 29 28 29 27 27 27 28 28
9 10 5 7 8 9 1 0 -2 7 8 6 7 8 8 12 15 16 16 13 14 19 19 20 23 23 24 23 23 23 24 26 26 25 24 24 25 28
7 10 10 9 6 5 -1 -5 0 -1 6 8 7 7 7 8 11 12 14 14 16 16 17 21 24 25 24 24 22 21 22 23 24 27 28 27 26 24
7 8 7 4 3 2 6 1 1 -3 1 5 7 8 8 7 10 11 11 13 15 15 16 17 20 22 22 22 20 21 21 21 23 24 25 27 29 29

GFSNE_sfc_temp_030.txt.gz
Temp
50 50 49 50 49 48 49 46 39 33 38 45 46 51 52 52 50 50 50 48 46 46 45 46 46 48 48 48 48 49 49 51 51 52 53 55 58 62
52 49 49 49 48 50 49 48 46 41 38 45 46 48 49 50 49 49 49 46 45 45 44 44 44 45 46 47 47 47 47 48 50 49 50 52 55 60
49 48 48 49 48 48 48 47 45 44 38 42 45 47 45 45 47 47 47 49 51 46 44 43 43 43 43 44 45 45 45 46 47 47 47 49 53 58
48 48 47 49 46 47 46 44 43 42 38 35 40 40 41 43 44 44 46 49 49 48 44 43 42 42 42 42 43 44 44 44 45 44 44 44 46 57
47 46 45 45 43 44 43 42 40 39 39 36 35 39 40 42 41 42 41 42 48 47 44 42 42 42 42 42 42 43 44 44 43 43 42 42 42 48
46 45 43 42 41 40 39 40 39 37 37 35 35 35 37 39 41 39 39 42 42 47 46 44 43 44 43 42 42 43 43 44 44 42 41 40 39 42
44 44 43 39 35 35 36 36 35 33 33 32 33 34 35 37 35 39 37 40 42 44 43 45 46 48 49 42 44 43 42 43 43 42 40 40 40 40
42 42 42 39 38 34 33 33 33 32 30 31 31 31 33 36 37 35 36 34 32 43 39 40 45 44 47 50 39 40 40 41 42 42 40 39 40 39
40 40 40 40 37 37 34 33 33 33 31 33 30 32 33 35 36 35 36 35 34 40 39 36 42 40 44 48 41 40 40 40 41 42 40 39 39 39
40 39 39 38 38 33 32 32 35 36 37 36 35 35 36 37 35 35 36 36 38 40 40 33 39 38 43 44 41 40 40 39 40 41 41 40 39 39
39 39 37 36 32 30 31 30 33 36 37 35 34 34 34 34 35 35 32 32 30 34 39 37 38 37 38 41 43 40 39 38 38 40 41 40 39 39
38 38 34 32 29 30 29 29 28 31 33 33 34 37 37 38 35 36 35 30 31 32 40 34 37 37 34 42 44 44 44 38 37 40 41 41 40 42
35 35 36 30 29 28 28 29 28 29 30 31 32 35 37 37 37 38 37 33 32 33 40 39 37 37 36 37 41 43 44 43 44 43 39 40 41 43
31 35 32 28 27 27 28 26 26 27 30 28 29 30 31 31 34 35 35 36 37 37 41 40 36 37 35 32 35 41 41 44 44 43 43 42 39 40
32 30 27 27 28 29 28 26 27 29 27 26 27 28 30 32 34 33 35 36 37 37 39 39 37 36 36 35 35 37 39 40 42 42 43 44 44 44
33 32 29 25 28 28 31 31 30 28 26 26 26 29 31 31 32 33 32 33 34 34 35 35 35 35 33 36 37 36 39 36 40 39 39 40 44 46
28 30 31 30 30 31 31 30 30 29 27 26 26 27 28 29 30 32 32 33 31 32 33 35 34 34 35 34 33 36 37 38 40 39 37 39 41 42
29 30 29 28 28 29 28 28 29 28 27 26 26 27 26 26 27 30 31 30 30 31 32 33 34 33 33 33 32 34 38 38 39 38 39 37 39 43
28 31 29 28 28 29 29 28 27 27 26 26 25 26 26 26 27 27 28 29 29 31 33 33 33 31 31 29 33 30 33 38 37 36 37 36 37 41
29 30 29 29 29 30 30 28 28 27 26 26 25 24 24 25 26 26 26 25 27 30 31 34 33 30 28 28 31 31 30 33 34 34 34 37 37 30
32 33 31 31 31 30 29 27 25 25 23 24 25 24 24 24 24 26 27 26 26 29 28 29 31 31 33 34 30 30 30 30 31 32 35 34 34 35
32 32 33 32 31 30 28 27 26 26 26 25 24 24 24 25 24 24 25 25 27 27 28 30 32 33 32 32 30 29 31 31 30 30 30 29 31 31
32 32 32 31 30 29 29 28 27 26 26 24 24 24 23 23 25 25 24 25 26 26 27 28 30 32 32 31 30 31 29 30 32 32 31 28 30 30

GFSNE_sfc_temp_033.txt.gz
Temp
51 51 50 50 50 50 48 47 41 35 39 46 47 52 53 52 52 51 50 48 47 46 46 46 47 47 48 49 49 50 50 50 50 51 52 52 54 55
51 50 50 49 48 48 49 49 48 43 38 46 48 49 50 50 50 49 49 47 46 45 45 45 45 46 46 46 47 47 48 48 49 49 50 50 51 53
51 49 47 48 47 48 49 49 47 47 41 45 47 47 45 45 46 47 48 48 48 46 45 45 45 44 44 44 44 45 45 46 47 47 48 49 49 50
47 47 46 49 47 48 47 45 45 45 43 38 41 41 41 43 44 43 46 47 47 47 45 45 44 43 43 43 43 43 43 44 45 45 46 46 46 47
47 46 47 46 44 45 44 42 42 43 42 37 36 39 41 42 41 43 43 44 47 46 45 44 42 43 43 43 43 43 43 43 43 43 43 42 43 43
48 47 46 44 43 40 39 39 39 38 37 35 35 36 38 40 39 39 37 42 41 47 46 44 43 43 42 42 42 43 43 43 43 43 42 40 40 41
47 47 46 42 38 37 37 36 35 33 33 32 32 33 33 35 35 38 37 38 39 43 41 43 44 43 45 43 44 43 41 42 42 43 42 40 40 40
44 44 44 42 41 38 37 35 34 32 30 30 31 30 32 35 35 34 34 33 32 43 38 34 40 38 44 46 41 41 41 41 41 42 42 40 39 39
43 42 42 44 40 40 37 35 35 35 33 33 31 31 31 34 35 33 34 32 33 38 38 35 39 37 42 46 42 41 40 40 40 40 41 39 39 38
42 42 41 40 38 33 33 33 35 37 38 38 36 34 35 36 35 35 34 35 37 39 40 31 38 37 41 44 43 42 41 40 40 39 40 39 39 38
41 41 40 38 33 31 30 30 32 34 38 37 36 35 35 35 35 35 31 31 30 34 38 34 36 36 39 39 42 42 40 39 39 39 39 40 39 38
40 40 35 33 30 30 28 28 27 31 32 32 33 35 37 37 35 36 34 29 31 30 38 34 35 36 33 40 41 42 41 38 39 39 39 41 40 39
35 37 38 32 30 29 29 28 28 29 29 30 32 33 35 36 36 38 37 34 31 31 38 38 35 36 35 35 39 40 42 41 40 39 39 40 40 41
33 36 35 30 29 29 29 30 28 28 31 29 29 30 30 31 33 36 36 35 35 35 40 39 35 36 35 33 34 40 41 42 42 40 39 41 40 39
34 34 30 30 30 31 32 30 28 31 29 27 27 28 30 33 34 34 36 36 36 37 40 39 37 37 36 34 33 37 36 40 42 41 41 39 41 41
33 34 32 30 30 29 31 34 33 32 29 28 27 30 31 31 31 33 32 33 33 34 34 36 35 35 34 36 36 34 38 36 40 41 41 41 41 42
30 32 32 33 32 33 33 33 33 32 30 29 28 28 29 30 29 32 31 32 30 31 33 34 34 34 36 35 32 36 37 38 40 39 39 38 39 42
30 30 31 31 30 30 31 31 32 30 30 28 28 28 27 27 28 30 31 30 29 30 31 33 33 33 33 34 33 32 35 37 39 37 38 36 38 41
28 30 31 31 30 31 32 32 30 30 28 29 28 28 26 27 27 29 29 28 28 29 32 33 32 30 27 28 31 31 32 35 36 35 36 36 37 34
30 31 31 32 31 32 33 32 31 29 29 28 27 27 26 26 25 26 28 27 27 29 30 33 31 29 26 26 30 30 31 33 34 34 35 37 33 31
32 32 34 34 33 32 32 30 28 27 27 26 27 26 26 26 26 25 26 26 27 29 27 28 31 32 33 34 30 30 31 31 32 31 34 34 34 35
32 32 34 35 34 33 31 30 29 28 27 27 27 26 26 26 26 25 25 24 26 26 27 30 32 33 32 31 30 30 31 32 31 30 30 30 30 29
33 33 33 33 33 32 31 30 29 28 28 27 27 27 25 24 26 27 26 26 26 25 26 27 30 32 31 32 30 30 30 30 32 31 30 30 30 30